KAL1454 RKPC-RKSI

Flight info

Callsign KAL1454
Flight time N/A
Altitude 33100
Route KAMI1W KAMIT Y722 OLMEN OLME2E
Aircraft B738/H-SDE2E3FGHIRWXY/LB1

Departure

Time 2026-05-01 08:30
Airport Jeju International Airport (RKPC)

Arrival

Time N/A
Airport Incheon International Airport (RKSI)
Time Latitude Longitude Altitude Speed Heading
2026-05-01 08:01 33.50787 126.49303 93 ft 0 kts 180°
2026-05-01 08:17 33.50802 126.49303 93 ft 3 kts 180°
2026-05-01 08:17 33.50821 126.49304 93 ft 3 kts 180°
2026-05-01 08:17 33.50840 126.49304 92 ft 3 kts 180°
2026-05-01 08:18 33.50859 126.49304 92 ft 3 kts 180°
2026-05-01 08:18 33.50896 126.49292 92 ft 2 kts 131°
2026-05-01 08:20 33.50896 126.49293 92 ft 1 kts 129°
2026-05-01 08:20 33.50895 126.49306 92 ft 2 kts 84°
2026-05-01 08:20 33.50898 126.49321 92 ft 2 kts 76°
2026-05-01 08:21 33.50903 126.49342 92 ft 6 kts 72°
2026-05-01 08:21 33.50938 126.49420 96 ft 14 kts 59°
2026-05-01 08:21 33.50971 126.49482 96 ft 6 kts 57°
2026-05-01 08:21 33.50978 126.49495 98 ft 1 kts 58°
2026-05-01 08:22 33.50981 126.49501 98 ft 1 kts 58°
2026-05-01 08:22 33.50982 126.49503 98 ft 0 kts 58°
2026-05-01 08:23 33.51004 126.49545 94 ft 11 kts 56°
2026-05-01 08:23 33.51067 126.49612 97 ft 12 kts 18°
2026-05-01 08:23 33.51145 126.49648 96 ft 13 kts 19°
2026-05-01 08:24 33.51252 126.49692 89 ft 19 kts 19°
2026-05-01 08:24 33.51334 126.49737 88 ft 6 kts 52°
2026-05-01 08:24 33.51334 126.49788 88 ft 6 kts 103°
2026-05-01 08:24 33.51335 126.49823 86 ft 0 kts 57°
2026-05-01 08:25 33.51358 126.49832 88 ft 7 kts 359°
2026-05-01 08:25 33.51390 126.49816 85 ft 8 kts 325°
2026-05-01 08:25 33.51391 126.49815 86 ft 0 kts 325°
2026-05-01 08:28 33.51431 126.49782 86 ft 8 kts 324°
2026-05-01 08:28 33.51454 126.49695 86 ft 10 kts 264°
2026-05-01 08:28 33.51438 126.49646 89 ft 8 kts 233°
2026-05-01 08:28 33.51437 126.49644 89 ft 0 kts 233°
2026-05-01 08:29 33.51433 126.49638 89 ft 8 kts 236°
2026-05-01 08:29 33.51315 126.49410 88 ft 66 kts 238°
2026-05-01 08:30 33.50948 126.48701 92 ft 132 kts 238°
2026-05-01 08:30 33.50398 126.47569 223 ft 175 kts 243°
2026-05-01 08:30 33.49807 126.46278 1030 ft 175 kts 245°
2026-05-01 08:30 33.49194 126.45021 1998 ft 175 kts 243°
2026-05-01 08:31 33.48490 126.43739 2532 ft 196 kts 245°
2026-05-01 08:31 33.47764 126.42307 2926 ft 209 kts 243°
2026-05-01 08:31 33.46917 126.40757 3150 ft 236 kts 243°
2026-05-01 08:31 33.45991 126.38988 3441 ft 259 kts 243°
2026-05-01 08:32 33.45204 126.37056 4211 ft 258 kts 260°
2026-05-01 08:32 33.45119 126.35234 4879 ft 252 kts 285°
2026-05-01 08:32 33.45436 126.34156 5292 ft 249 kts 301°
2026-05-01 08:33 33.46597 126.32666 5895 ft 251 kts 327°
2026-05-01 08:33 33.48178 126.31726 6556 ft 253 kts 339°
2026-05-01 08:33 33.49842 126.30998 7217 ft 254 kts 341°
2026-05-01 08:33 33.51522 126.30290 7885 ft 255 kts 341°
2026-05-01 08:34 33.53184 126.29585 8528 ft 257 kts 341°
2026-05-01 08:34 33.54878 126.28857 9188 ft 259 kts 340°
2026-05-01 08:34 33.56577 126.28120 9828 ft 259 kts 340°
2026-05-01 08:34 33.58289 126.27371 9975 ft 263 kts 340°
2026-05-01 08:35 33.60010 126.26614 10015 ft 263 kts 340°
2026-05-01 08:35 33.61736 126.25853 10013 ft 264 kts 340°
2026-05-01 08:35 33.63456 126.25094 10011 ft 263 kts 340°
2026-05-01 08:35 33.65157 126.24391 10009 ft 262 kts 348°
2026-05-01 08:36 33.66971 126.24405 10017 ft 263 kts 11°
2026-05-01 08:36 33.68682 126.25264 10046 ft 273 kts 29°
2026-05-01 08:36 33.70118 126.26878 10173 ft 300 kts 48°
2026-05-01 08:36 33.71367 126.29014 10312 ft 320 kts 51°
2026-05-01 08:37 33.72626 126.31316 10464 ft 339 kts 52°
2026-05-01 08:37 33.73929 126.33721 10575 ft 355 kts 52°
2026-05-01 08:37 33.75304 126.36250 10932 ft 362 kts 52°
2026-05-01 08:37 33.76707 126.38819 11241 ft 371 kts 52°
2026-05-01 08:38 33.78100 126.41383 11950 ft 366 kts 52°
2026-05-01 08:38 33.79529 126.43965 12279 ft 375 kts 51°
2026-05-01 08:38 33.80992 126.46576 12520 ft 386 kts 51°
2026-05-01 08:38 33.82499 126.49283 12937 ft 391 kts 51°
2026-05-01 08:39 33.84015 126.52022 13418 ft 394 kts 51°
2026-05-01 08:39 33.85536 126.54774 13888 ft 398 kts 51°
2026-05-01 08:39 33.87082 126.57570 14305 ft 401 kts 51°
2026-05-01 08:39 33.88624 126.60362 14734 ft 405 kts 51°
2026-05-01 08:40 33.91762 126.66052 15609 ft 412 kts 51°
2026-05-01 08:40 33.93360 126.68951 16030 ft 416 kts 51°
2026-05-01 08:40 33.95127 126.71700 16421 ft 411 kts 37°
2026-05-01 08:41 33.97465 126.73590 16852 ft 401 kts 19°
2026-05-01 08:41 34.00064 126.74578 17282 ft 393 kts
2026-05-01 08:41 34.02777 126.74914 17711 ft 394 kts
2026-05-01 08:41 34.05525 126.75161 18104 ft 397 kts 359°
2026-05-01 08:42 34.08299 126.75404 18465 ft 400 kts 359°
2026-05-01 08:42 34.11048 126.75659 18846 ft 401 kts 359°
2026-05-01 08:42 34.13843 126.75938 19230 ft 403 kts 360°
2026-05-01 08:42 34.16655 126.76230 19592 ft 405 kts 359°
2026-05-01 08:43 34.19481 126.76529 19943 ft 407 kts 359°
2026-05-01 08:43 34.22270 126.76824 20263 ft 409 kts 359°
2026-05-01 08:43 34.25116 126.77127 20652 ft 410 kts 359°
2026-05-01 08:43 34.27963 126.77429 21028 ft 411 kts 359°
2026-05-01 08:44 34.30807 126.77732 21505 ft 408 kts 359°
2026-05-01 08:44 34.33631 126.78034 22060 ft 404 kts 358°
2026-05-01 08:44 34.36423 126.78333 22620 ft 400 kts 358°
2026-05-01 08:44 34.39188 126.78629 23197 ft 396 kts 357°
2026-05-01 08:45 34.41923 126.78922 23732 ft 393 kts 357°
2026-05-01 08:45 34.44608 126.79208 24213 ft 389 kts 356°
2026-05-01 08:45 34.47302 126.79496 24708 ft 386 kts 356°
2026-05-01 08:45 34.49943 126.79778 25208 ft 382 kts 356°
2026-05-01 08:46 34.52598 126.80061 25726 ft 379 kts 355°
2026-05-01 08:46 34.55198 126.80339 26251 ft 376 kts 355°
2026-05-01 08:46 34.57716 126.80609 26754 ft 372 kts 355°
2026-05-01 08:46 34.60350 126.80891 27310 ft 368 kts 354°
2026-05-01 08:47 34.62885 126.81163 27851 ft 363 kts 354°
2026-05-01 08:47 34.65377 126.81431 28406 ft 359 kts 354°
2026-05-01 08:47 34.67857 126.81698 28978 ft 353 kts 353°
2026-05-01 08:47 34.70289 126.81961 29555 ft 347 kts 353°
2026-05-01 08:48 34.72655 126.82216 30091 ft 343 kts 353°
2026-05-01 08:48 34.75041 126.82469 30436 ft 341 kts 353°
2026-05-01 08:48 34.77422 126.82719 30571 ft 347 kts 353°
2026-05-01 08:48 34.79839 126.82966 30614 ft 355 kts 353°
2026-05-01 08:49 34.84876 126.83495 30700 ft 369 kts 353°
2026-05-01 08:49 34.90062 126.84051 30827 ft 382 kts 354°
2026-05-01 08:50 34.92729 126.84341 30938 ft 387 kts 354°
2026-05-01 08:50 34.95433 126.84636 31025 ft 391 kts 354°
2026-05-01 08:50 35.00940 126.85233 31049 ft 402 kts 354°
2026-05-01 08:51 35.06556 126.85844 31053 ft 412 kts 355°
2026-05-01 08:51 35.12339 126.86471 31053 ft 421 kts 355°
2026-05-01 08:52 35.18244 126.87109 31054 ft 429 kts 355°
2026-05-01 08:52 35.24179 126.87757 31040 ft 429 kts 355°
2026-05-01 08:53 35.30107 126.88406 30986 ft 428 kts 355°
2026-05-01 08:53 35.33103 126.88730 30442 ft 433 kts 355°
2026-05-01 08:53 35.36097 126.89057 29997 ft 430 kts 355°
2026-05-01 08:54 35.39092 126.89386 29466 ft 428 kts 355°
2026-05-01 08:54 35.42029 126.89706 28938 ft 430 kts 356°
2026-05-01 08:54 35.45021 126.90032 28420 ft 430 kts 356°
2026-05-01 08:54 35.48012 126.90358 27900 ft 430 kts 356°
2026-05-01 08:55 35.50996 126.90685 27404 ft 430 kts 356°
2026-05-01 08:55 35.53985 126.91011 27123 ft 430 kts 356°
2026-05-01 08:55 35.56922 126.91333 27092 ft 429 kts 356°
2026-05-01 08:55 35.59903 126.91659 27052 ft 428 kts 356°
2026-05-01 08:56 35.65110 126.92231 27050 ft 426 kts 356°
2026-05-01 08:56 35.69022 126.92659 27048 ft 426 kts 356°
2026-05-01 08:56 35.71989 126.92984 27047 ft 427 kts 356°
2026-05-01 08:57 35.74955 126.93309 27044 ft 427 kts 356°
2026-05-01 08:57 35.77896 126.93632 27041 ft 427 kts 356°
2026-05-01 08:57 35.80870 126.93960 27047 ft 427 kts 356°
2026-05-01 08:57 35.83808 126.94284 27044 ft 427 kts 356°
2026-05-01 08:58 35.86776 126.94611 27042 ft 427 kts 356°
2026-05-01 08:58 35.89751 126.94937 26474 ft 431 kts 357°
2026-05-01 08:58 35.92733 126.95270 25727 ft 429 kts 358°
2026-05-01 08:58 35.95708 126.95602 25070 ft 425 kts 358°
2026-05-01 08:59 35.98653 126.95929 24429 ft 422 kts 358°
2026-05-01 08:59 36.01578 126.96252 23798 ft 420 kts 359°
2026-05-01 08:59 36.04486 126.96573 23107 ft 417 kts 359°
2026-05-01 08:59 36.07342 126.96888 22378 ft 415 kts 359°
2026-05-01 09:00 36.10217 126.97207 21650 ft 413 kts 360°
2026-05-01 09:00 36.13082 126.97524 20939 ft 410 kts
2026-05-01 09:00 36.15924 126.97840 20250 ft 408 kts
2026-05-01 09:00 36.18713 126.98149 19581 ft 406 kts
2026-05-01 09:01 36.21529 126.98462 18915 ft 404 kts
2026-05-01 09:01 36.23386 126.98669 18489 ft 402 kts
2026-05-01 09:01 36.26166 126.98978 17790 ft 400 kts
2026-05-01 09:01 36.28946 126.99288 17053 ft 398 kts
2026-05-01 09:02 36.29843 126.99388 16810 ft 397 kts
2026-05-01 09:02 36.39746 127.00379 15889 ft 364 kts 356°
2026-05-01 09:03 36.42277 127.00290 15889 ft 361 kts 356°
2026-05-01 09:03 36.44769 127.00178 15884 ft 361 kts 355°
2026-05-01 09:03 36.47289 127.00066 15870 ft 362 kts 355°
2026-05-01 09:03 36.49820 126.99963 15885 ft 362 kts 355°
2026-05-01 09:04 36.52344 126.99866 15870 ft 362 kts 356°
2026-05-01 09:04 36.54828 126.99774 15873 ft 362 kts 356°
2026-05-01 09:04 36.57351 126.99683 15868 ft 362 kts 356°
2026-05-01 09:04 36.59876 126.99592 15864 ft 362 kts 355°
2026-05-01 09:05 36.62397 126.99503 15850 ft 362 kts 355°
2026-05-01 09:05 36.64918 126.99413 15609 ft 363 kts 356°
2026-05-01 09:05 36.67394 126.99205 15255 ft 359 kts 347°
2026-05-01 09:05 36.69739 126.98170 14798 ft 354 kts 334°
2026-05-01 09:06 36.71922 126.96766 14341 ft 351 kts 332°
2026-05-01 09:06 36.74052 126.95294 13894 ft 348 kts 332°
2026-05-01 09:06 36.76152 126.93810 13416 ft 346 kts 332°
2026-05-01 09:06 36.78246 126.92316 12899 ft 345 kts 331°
2026-05-01 09:07 36.80302 126.90839 12362 ft 344 kts 331°
2026-05-01 09:07 36.82376 126.89344 11828 ft 344 kts 331°
2026-05-01 09:07 36.84457 126.87837 11300 ft 344 kts 331°
2026-05-01 09:07 36.86531 126.86331 10785 ft 343 kts 331°
2026-05-01 09:08 36.88581 126.84838 10269 ft 340 kts 331°
2026-05-01 09:08 36.90600 126.83363 9773 ft 339 kts 331°
2026-05-01 09:08 36.92630 126.81875 9228 ft 337 kts 331°
2026-05-01 09:08 36.94660 126.80395 8683 ft 335 kts 331°
2026-05-01 09:09 36.96677 126.78940 8153 ft 334 kts 331°
2026-05-01 09:09 36.98700 126.77499 7630 ft 333 kts 330°
2026-05-01 09:09 37.00697 126.76100 7171 ft 331 kts 331°
2026-05-01 09:09 37.02716 126.74702 7039 ft 334 kts 331°
2026-05-01 09:10 37.04771 126.73290 6687 ft 334 kts 331°
2026-05-01 09:10 37.06805 126.71904 6364 ft 331 kts 331°
2026-05-01 09:10 37.08829 126.70537 6006 ft 329 kts 331°
2026-05-01 09:10 37.10818 126.69202 5654 ft 327 kts 331°
2026-05-01 09:11 37.12821 126.67863 5302 ft 325 kts 331°
2026-05-01 09:11 37.14826 126.66526 5024 ft 325 kts 331°
2026-05-01 09:11 37.16829 126.65189 4996 ft 324 kts 331°
2026-05-01 09:11 37.18791 126.63883 4989 ft 321 kts 331°
2026-05-01 09:12 37.20073 126.63032 4986 ft 323 kts 331°
2026-05-01 09:12 37.22066 126.61710 4981 ft 324 kts 331°
2026-05-01 09:12 37.24073 126.60374 4640 ft 328 kts 331°
2026-05-01 09:12 37.26078 126.59045 4229 ft 328 kts 331°
2026-05-01 09:13 37.28077 126.57725 3820 ft 325 kts 331°
2026-05-01 09:13 37.30076 126.56412 3385 ft 322 kts 331°
2026-05-01 09:13 37.31978 126.54958 2959 ft 318 kts 323°
2026-05-01 09:13 37.33769 126.53338 2539 ft 315 kts 323°
2026-05-01 09:14 37.35536 126.51761 2149 ft 305 kts 323°
2026-05-01 09:14 37.37193 126.50252 1741 ft 283 kts 320°
2026-05-01 09:14 37.38672 126.48836 1369 ft 255 kts 319°
2026-05-01 09:14 37.39998 126.47551 966 ft 228 kts 318°
2026-05-01 09:15 37.40819 126.46741 657 ft 216 kts 320°
2026-05-01 09:15 37.41918 126.45782 407 ft 188 kts 321°
2026-05-01 09:15 37.42920 126.44926 362 ft 169 kts 319°
2026-05-01 09:15 37.43832 126.44068 173 ft 158 kts 318°
2026-05-01 09:16 37.44713 126.43283 70 ft 142 kts 320°
2026-05-01 09:16 37.45541 126.42561 460 ft 139 kts 319°
2026-05-01 09:16 37.46257 126.41896 1024 ft 119 kts 314°
2026-05-01 09:17 37.47803 126.40268 1541 ft 174 kts 315°
2026-05-01 09:17 37.48658 126.39182 2069 ft 177 kts 298°
2026-05-01 09:17 37.48245 126.36263 2434 ft 188 kts 242°
2026-05-01 09:18 37.47540 126.34864 2636 ft 188 kts 241°
2026-05-01 09:18 37.45437 126.32812 3046 ft 194 kts 235°
2026-05-01 09:19 37.43968 126.29975 3492 ft 196 kts 241°
2026-05-01 09:19 37.43226 126.28533 3701 ft 196 kts 241°
2026-05-01 09:19 37.42480 126.27095 3908 ft 193 kts 241°
2026-05-01 09:20 37.40654 126.24622 3997 ft 206 kts 201°
2026-05-01 09:20 37.37953 126.25567 4018 ft 218 kts 135°
2026-05-01 09:21 37.32919 126.32793 3992 ft 220 kts 131°
2026-05-01 09:22 37.30913 126.35725 4013 ft 224 kts 131°
2026-05-01 09:22 37.28875 126.38699 3990 ft 223 kts 131°